Weather History for KLDJ - June, 2013

Change the Weather History Date:

Saturday, June 22, 2013

  Actual Average (KEWR) Record (KEWR)
Temperature  
Mean Temperature 74 °F 74 °F  
Max Temperature 86 °F 84 °F 101 °F (1988)
Min Temperature 63 °F 65 °F 48 °F (1940)
Degree Days  
Heating Degree Days 0 0  
Month to date heating degree days 15  
Since 1 June heating degree days 15  
Since 1 July heating degree days 4870  
Cooling Degree Days 10 10  
Month to date cooling degree days 154  
Year to date cooling degree days 230  
Since 1 June cooling degree days 154  
Growing Degree Days 24 (Base 50)    
Moisture  
Dew Point 57 °F    
Average Humidity 55    
Maximum Humidity 76    
Minimum Humidity 37    
Precipitation  
Precipitation 0.00 in 0.12 in 0.71 in (1961)
Month to date precipitation 3.02  
Year to date precipitation 21.91  
Snow  
Snow 0.00 in 0.00 in 0.00 in (2002)
Month to date snowfall 0.0  
Since 1 July snowfall 28.5  
Snow Depth -    
Sea Level Pressure  
Sea Level Pressure 30.22 in    
Wind  
Wind Speed 4 mph (SSW)    
Max Wind Speed 12 mph    
Max Gust Speed 17 mph    
Visibility 10 miles    
Events      
T = Trace of Precipitation, MM = Missing Value Source: NWS Daily Summary

Daily Weather History Graph

Daily Weather History Graph

Search for Another Location

Airport or City:

Trip Planner

Search our weather history database for the weather conditions in past years. The results will help you decide how hot, cold, wet, or windy it might be!

Date:

Astronomy

Jun. 22, 2013 Rise Set
Actual Time 5:26 AM EDT 8:31 PM EDT
Civil Twilight 4:53 AM EDT 9:04 PM EDT
Nautical Twilight 4:10 AM EDT 9:47 PM EDT
Astronomical Twilight 3:20 AM EDT 10:37 PM EDT
Moon 7:43 PM EDT (6/22) 4:36 AM EDT (6/22)
Length of Visible Light 16h 11m
Length of Day
15h 05m
Waxing Gibbous, 99% of the Moon is Illuminated
Jun 22
Waxing Gibbous
Jun 23
Full
Jun 30
Last Quarter
Jul 8
New
Jul 15
First Quarter

Hourly Weather History & Observations

Time (EDT) Temp. Heat Index Dew Point Humidity Pressure Visibility Wind Dir Wind Speed Gust Speed Precip Events Conditions
12:15 AM 70.0 °F - 51.1 °F 51% 30.27 in 10.0 mi SW 4.6 mph - N/A   Clear
12:35 AM 69.8 °F - 50.9 °F 51% 30.27 in 10.0 mi WSW 4.6 mph - N/A   Clear
12:55 AM 69.4 °F - 51.1 °F 52% 30.26 in 10.0 mi WSW 5.8 mph - N/A   Clear
1:15 AM 69.1 °F - 50.9 °F 52% 30.27 in 10.0 mi WSW 4.6 mph - N/A   Clear
1:35 AM 68.9 °F - 50.7 °F 52% 30.26 in 10.0 mi WSW 3.5 mph - N/A   Clear
1:55 AM 68.2 °F - 50.4 °F 53% 30.25 in 10.0 mi Calm Calm - N/A   Clear
2:15 AM 67.1 °F - 49.6 °F 53% 30.25 in 10.0 mi Calm Calm - N/A   Clear
2:35 AM 67.5 °F - 49.3 °F 52% 30.25 in 10.0 mi Calm Calm - N/A   Clear
2:55 AM 67.5 °F - 49.6 °F 53% 30.26 in 10.0 mi WSW 4.6 mph - N/A   Clear
3:15 AM 67.1 °F - 50.4 °F 55% 30.26 in 10.0 mi WSW 3.5 mph - N/A   Clear
3:35 AM 66.2 °F - 51.1 °F 58% 30.26 in 10.0 mi WSW 3.5 mph - N/A   Clear
3:55 AM 65.7 °F - 51.4 °F 60% 30.25 in 10.0 mi Calm Calm - N/A   Clear
4:15 AM 65.3 °F - 51.4 °F 61% 30.25 in 10.0 mi Calm Calm - N/A   Clear
4:35 AM 64.9 °F - 51.1 °F 61% 30.25 in 10.0 mi Calm Calm - N/A   Clear
4:55 AM 64.6 °F - 51.6 °F 63% 30.25 in 10.0 mi Calm Calm - N/A   Clear
5:15 AM 64.4 °F - 52.5 °F 65% 30.25 in 10.0 mi South 3.5 mph - N/A   Clear
5:35 AM 63.7 °F - 53.1 °F 68% 30.26 in 10.0 mi Calm Calm - N/A   Clear
5:55 AM 63.1 °F - 54.1 °F 72% 30.27 in 10.0 mi Calm Calm - N/A   Clear
6:15 AM 63.9 °F - 55.4 °F 74% 30.27 in 10.0 mi Calm Calm - N/A   Clear
6:35 AM 64.0 °F - 56.3 °F 76% 30.26 in 10.0 mi Calm Calm - N/A   Clear
6:55 AM 64.8 °F - 57.2 °F 76% 30.26 in 10.0 mi Calm Calm - N/A   Clear
7:15 AM 66.2 °F - 57.4 °F 73% 30.25 in 10.0 mi Calm Calm - N/A   Clear
7:35 AM 67.6 °F - 57.7 °F 71% 30.25 in 10.0 mi Calm Calm - N/A   Clear
7:55 AM 68.4 °F - 57.6 °F 68% 30.25 in 10.0 mi West 5.8 mph - N/A   Clear
8:15 AM 69.1 °F - 57.7 °F 67% 30.26 in 10.0 mi WSW 3.5 mph - N/A   Clear
8:35 AM 70.7 °F - 58.3 °F 65% 30.26 in 10.0 mi WSW 3.5 mph - N/A   Clear
8:55 AM 72.3 °F - 58.1 °F 61% 30.25 in 10.0 mi SW 4.6 mph - N/A   Clear
9:15 AM 73.2 °F - 59.2 °F 61% 30.26 in 10.0 mi West 6.9 mph - N/A   Clear
9:35 AM 74.1 °F - 60.1 °F 61% 30.26 in 10.0 mi WSW 4.6 mph - N/A   Clear
9:55 AM 75.6 °F - 61.2 °F 61% 30.25 in 10.0 mi West 6.9 mph - N/A   Clear
10:15 AM 76.1 °F - 61.0 °F 59% 30.26 in 10.0 mi West 6.9 mph - N/A   Clear
10:35 AM 76.6 °F - 61.2 °F 59% 30.25 in 10.0 mi SSW 3.5 mph - N/A   Clear
10:55 AM 77.5 °F - 61.2 °F 57% 30.25 in 10.0 mi West 3.5 mph - N/A   Clear
11:15 AM 78.4 °F - 61.2 °F 55% 30.25 in 10.0 mi WSW 5.8 mph - N/A   Clear
11:35 AM 79.9 °F - 59.9 °F 50% 30.25 in 10.0 mi WSW 4.6 mph - N/A   Clear
11:55 AM 80.2 °F 80.8 °F 59.0 °F 48% 30.25 in 10.0 mi West 4.6 mph - N/A   Clear
12:15 PM 80.8 °F 81.3 °F 59.2 °F 48% 30.25 in 10.0 mi West 3.5 mph - N/A   Clear
12:35 PM 82.4 °F 82.3 °F 58.6 °F 44% 30.26 in 10.0 mi Calm Calm - N/A   Clear
12:55 PM 82.9 °F 82.8 °F 58.8 °F 44% 30.25 in 10.0 mi West 6.9 mph - N/A   Clear
1:15 PM 83.1 °F 82.4 °F 56.1 °F 40% 30.24 in 10.0 mi West 6.9 mph - N/A   Clear
1:35 PM 84.6 °F 83.4 °F 55.6 °F 37% 30.23 in 10.0 mi WSW 5.8 mph - N/A   Clear
1:55 PM 84.9 °F 83.7 °F 56.3 °F 37% 30.22 in 10.0 mi WSW 6.9 mph - N/A   Clear
2:15 PM 85.8 °F 84.7 °F 56.8 °F 37% 30.21 in 10.0 mi South 6.9 mph - N/A   Clear
2:35 PM 85.3 °F 84.3 °F 57.0 °F 38% 30.21 in 10.0 mi South 8.1 mph - N/A   Clear
2:55 PM 85.1 °F 84.3 °F 57.2 °F 39% 30.20 in 10.0 mi SSW 6.9 mph 17.3 mph N/A   Clear
3:15 PM 86.0 °F 85.2 °F 58.1 °F 39% 30.20 in 10.0 mi SW 4.6 mph - N/A   Clear
3:35 PM 86.4 °F 85.6 °F 58.6 °F 39% 30.19 in 10.0 mi WSW 4.6 mph - N/A   Scattered Clouds
3:55 PM 85.1 °F 85.2 °F 60.6 °F 44% 30.18 in 10.0 mi ESE 10.4 mph 17.3 mph N/A   Scattered Clouds
4:15 PM 84.2 °F 84.6 °F 61.5 °F 46% 30.17 in 10.0 mi SSE 10.4 mph - N/A   Scattered Clouds
4:35 PM 84.4 °F 84.6 °F 61.2 °F 45% 30.16 in 10.0 mi SE 9.2 mph - N/A   Clear
4:55 PM 84.6 °F 85.0 °F 61.5 °F 46% 30.15 in 10.0 mi SE 9.2 mph - N/A   Clear
5:15 PM 84.4 °F 85.0 °F 62.1 °F 47% 30.14 in 10.0 mi ESE 11.5 mph - N/A   Clear
5:35 PM 83.5 °F 84.5 °F 62.8 °F 50% 30.15 in 10.0 mi ESE 6.9 mph - N/A   Clear
5:55 PM 82.9 °F 83.8 °F 62.8 °F 50% 30.14 in 10.0 mi SE 8.1 mph - N/A   Clear
6:15 PM 83.7 °F 84.7 °F 63.1 °F 50% 30.14 in 10.0 mi SE 9.2 mph - N/A   Clear
6:35 PM 82.6 °F 83.6 °F 62.8 °F 51% 30.13 in 10.0 mi SE 11.5 mph 16.1 mph N/A   Clear
6:55 PM 82.4 °F 83.2 °F 62.2 °F 50% 30.13 in 10.0 mi SE 10.4 mph - N/A   Clear
7:15 PM 81.1 °F 82.0 °F 61.7 °F 51% 30.13 in 10.0 mi SSE 10.4 mph - N/A   Clear
7:35 PM 79.7 °F - 60.4 °F 52% 30.13 in 10.0 mi SSE 9.2 mph - N/A   Clear
7:55 PM 79.0 °F - 59.0 °F 50% 30.13 in 10.0 mi SSE 9.2 mph - N/A   Clear
8:15 PM 78.1 °F - 58.6 °F 51% 30.14 in 10.0 mi South 8.1 mph - N/A   Clear
8:35 PM 77.2 °F - 58.6 °F 53% 30.14 in 10.0 mi South 9.2 mph - N/A   Clear
8:55 PM 77.0 °F - 58.6 °F 53% 30.14 in 10.0 mi South 9.2 mph - N/A   Clear
9:15 PM 76.1 °F - 59.2 °F 56% 30.15 in 10.0 mi South 6.9 mph - N/A   Clear
9:35 PM 75.6 °F - 59.5 °F 57% 30.16 in 10.0 mi South 8.1 mph - N/A   Clear
9:55 PM 74.8 °F - 59.4 °F 58% 30.16 in 10.0 mi South 9.2 mph - N/A   Clear
10:15 PM 74.3 °F - 59.0 °F 59% 30.17 in 10.0 mi South 4.6 mph - N/A   Clear
10:35 PM 73.8 °F - 59.0 °F 60% 30.18 in 10.0 mi South 3.5 mph - N/A   Clear
10:55 PM 73.4 °F - 59.0 °F 61% 30.18 in 10.0 mi South 3.5 mph - N/A   Clear
11:15 PM 73.2 °F - 58.6 °F 60% 30.18 in 10.0 mi SSW 4.6 mph - N/A   Clear
11:35 PM 72.7 °F - 59.0 °F 62% 30.19 in 10.0 mi Calm Calm - N/A   Clear
11:55 PM 72.9 °F - 59.2 °F 62% 30.19 in 10.0 mi Calm Calm - N/A   Clear